Time,TemperatureF,DewpointF,PressureIn,WindDirection,WindDirectionDegrees,WindSpeedMPH,WindSpeedGustMPH,Humidity,HourlyPrecipIn,Conditions,Clouds,dailyrainin,SoftwareType,DateUTC
2013-02-06 00:00:00,44.0,36.0,29.94,West,280,30.0,-999.0,73,-99.99,,,-99.99,,2013-02-06 00:00:00,
2013-02-06 00:21:00,44.0,36.0,29.94,West,280,30.0,-999.0,73,-99.99,,,-99.99,,2013-02-06 00:21:00,
2013-02-06 00:31:00,44.0,36.0,29.94,West,280,30.0,-999.0,73,-99.99,,,-99.99,,2013-02-06 00:31:00,
2013-02-06 00:41:00,44.0,36.0,29.94,West,280,30.0,-999.0,73,-99.99,,,-99.99,,2013-02-06 00:41:00,
2013-02-06 00:51:00,44.0,36.0,29.94,West,280,30.0,-999.0,73,-99.99,,,-99.99,,2013-02-06 00:51:00,
2013-02-06 01:00:00,44.0,34.0,29.94,WNW,290,31.0,-999.0,68,-99.99,,,-99.99,,2013-02-06 01:00:00,
2013-02-06 01:21:00,44.0,34.0,29.94,WNW,290,31.0,-999.0,68,-99.99,,,-99.99,,2013-02-06 01:21:00,
2013-02-06 01:31:00,44.0,34.0,29.94,WNW,290,31.0,-999.0,68,-99.99,,,-99.99,,2013-02-06 01:31:00,
2013-02-06 01:41:00,44.0,34.0,29.94,WNW,290,31.0,-999.0,68,-99.99,,,-99.99,,2013-02-06 01:41:00,
2013-02-06 01:52:00,44.0,34.0,29.94,WNW,290,31.0,-999.0,68,-99.99,,,-99.99,,2013-02-06 01:52:00,
2013-02-06 02:00:00,43.0,33.0,29.95,West,280,30.0,-999.0,67,-99.99,,,-99.99,,2013-02-06 02:00:00,
2013-02-06 02:21:00,43.0,33.0,29.95,West,280,30.0,-999.0,67,-99.99,,,-99.99,,2013-02-06 02:21:00,
2013-02-06 02:31:00,43.0,33.0,29.95,West,280,30.0,-999.0,67,-99.99,,,-99.99,,2013-02-06 02:31:00,
2013-02-06 02:41:00,43.0,33.0,29.95,West,280,30.0,-999.0,67,-99.99,,,-99.99,,2013-02-06 02:41:00,
2013-02-06 02:52:00,43.0,33.0,29.95,West,280,30.0,-999.0,67,-99.99,,,-99.99,,2013-02-06 02:52:00,
2013-02-06 03:00:00,42.0,30.0,29.95,West,280,31.0,-999.0,63,-99.99,,,-99.99,,2013-02-06 03:00:00,
2013-02-06 03:21:00,42.0,30.0,29.95,West,280,31.0,-999.0,63,-99.99,,,-99.99,,2013-02-06 03:21:00,
2013-02-06 03:31:00,42.0,30.0,29.95,West,280,31.0,-999.0,63,-99.99,,,-99.99,,2013-02-06 03:31:00,
2013-02-06 03:41:00,42.0,30.0,29.95,West,280,31.0,-999.0,63,-99.99,,,-99.99,,2013-02-06 03:41:00,
2013-02-06 03:52:00,42.0,30.0,29.95,West,280,31.0,-999.0,63,-99.99,,,-99.99,,2013-02-06 03:52:00,
2013-02-06 04:00:00,42.0,30.0,29.96,West,280,32.0,-999.0,62,-99.99,,,-99.99,,2013-02-06 04:00:00,
2013-02-06 04:21:00,42.0,30.0,29.96,West,280,32.0,-999.0,62,-99.99,,,-99.99,,2013-02-06 04:21:00,
2013-02-06 04:31:00,42.0,30.0,29.96,West,280,32.0,-999.0,62,-99.99,,,-99.99,,2013-02-06 04:31:00,
2013-02-06 04:41:00,42.0,30.0,29.96,West,280,32.0,-999.0,62,-99.99,,,-99.99,,2013-02-06 04:41:00,
2013-02-06 04:51:00,42.0,30.0,29.96,West,280,32.0,-999.0,62,-99.99,,,-99.99,,2013-02-06 04:51:00,
2013-02-06 05:00:00,41.0,31.0,29.97,West,280,33.0,-999.0,67,-99.99,,,-99.99,,2013-02-06 05:00:00,
2013-02-06 05:22:00,41.0,31.0,29.97,West,280,33.0,-999.0,67,-99.99,,,-99.99,,2013-02-06 05:22:00,
2013-02-06 05:31:00,41.0,31.0,29.97,West,280,33.0,-999.0,67,-99.99,,,-99.99,,2013-02-06 05:31:00,
2013-02-06 05:41:00,41.0,31.0,29.97,West,280,33.0,-999.0,67,-99.99,,,-99.99,,2013-02-06 05:41:00,
2013-02-06 05:52:00,41.0,31.0,29.97,West,280,33.0,-999.0,67,-99.99,,,-99.99,,2013-02-06 05:52:00,
2013-02-06 06:00:00,42.0,31.0,29.97,West,280,32.0,-999.0,64,-99.99,,,-99.99,,2013-02-06 06:00:00,
2013-02-06 06:21:00,42.0,31.0,29.97,West,280,32.0,-999.0,64,-99.99,,,-99.99,,2013-02-06 06:21:00,
2013-02-06 06:31:00,42.0,31.0,29.97,West,280,32.0,-999.0,64,-99.99,,,-99.99,,2013-02-06 06:31:00,
2013-02-06 06:41:00,42.0,31.0,29.97,West,280,32.0,-999.0,64,-99.99,,,-99.99,,2013-02-06 06:41:00,
2013-02-06 06:51:00,42.0,31.0,29.97,West,280,32.0,-999.0,64,-99.99,,,-99.99,,2013-02-06 06:51:00,
2013-02-06 07:00:00,40.0,34.0,29.98,WNW,290,33.0,-999.0,77,-99.99,,,-99.99,,2013-02-06 07:00:00,
2013-02-06 07:21:00,40.0,34.0,29.98,WNW,290,33.0,-999.0,77,-99.99,,,-99.99,,2013-02-06 07:21:00,
2013-02-06 07:32:00,40.0,34.0,29.98,WNW,290,33.0,-999.0,77,-99.99,,,-99.99,,2013-02-06 07:32:00,
2013-02-06 07:41:00,40.0,34.0,29.98,WNW,290,33.0,-999.0,77,-99.99,,,-99.99,,2013-02-06 07:41:00,
2013-02-06 07:51:00,40.0,34.0,29.98,WNW,290,33.0,-999.0,77,-99.99,,,-99.99,,2013-02-06 07:51:00,
2013-02-06 08:00:00,41.0,34.0,29.99,WNW,290,33.0,-999.0,73,-99.99,,,-99.99,,2013-02-06 08:00:00,
2013-02-06 08:21:00,41.0,34.0,29.99,WNW,290,33.0,-999.0,73,-99.99,,,-99.99,,2013-02-06 08:21:00,
2013-02-06 08:31:00,41.0,34.0,29.99,WNW,290,33.0,-999.0,73,-99.99,,,-99.99,,2013-02-06 08:31:00,
2013-02-06 08:41:00,41.0,34.0,29.99,WNW,290,33.0,-999.0,73,-99.99,,,-99.99,,2013-02-06 08:41:00,
2013-02-06 08:53:00,41.0,34.0,29.99,WNW,290,33.0,-999.0,73,-99.99,,,-99.99,,2013-02-06 08:53:00,
2013-02-06 09:00:00,39.0,33.0,30.00,WNW,300,31.0,-999.0,79,-99.99,,,-99.99,,2013-02-06 09:00:00,
2013-02-06 09:21:00,39.0,33.0,30.00,WNW,300,31.0,-999.0,79,-99.99,,,-99.99,,2013-02-06 09:21:00,
2013-02-06 09:31:00,39.0,33.0,30.00,WNW,300,31.0,-999.0,79,-99.99,,,-99.99,,2013-02-06 09:31:00,
2013-02-06 09:41:00,39.0,33.0,30.00,WNW,300,31.0,-999.0,79,-99.99,,,-99.99,,2013-02-06 09:41:00,
2013-02-06 09:51:00,39.0,33.0,30.00,WNW,300,31.0,-999.0,79,-99.99,,,-99.99,,2013-02-06 09:51:00,
2013-02-06 10:00:00,41.0,33.0,30.01,WNW,300,32.0,-999.0,73,-99.99,,,-99.99,,2013-02-06 10:00:00,
2013-02-06 10:21:00,41.0,33.0,30.01,WNW,300,32.0,-999.0,73,-99.99,,,-99.99,,2013-02-06 10:21:00,
2013-02-06 10:31:00,41.0,33.0,30.01,WNW,300,32.0,-999.0,73,-99.99,,,-99.99,,2013-02-06 10:31:00,
2013-02-06 10:41:00,41.0,33.0,30.01,WNW,300,32.0,-999.0,73,-99.99,,,-99.99,,2013-02-06 10:41:00,
2013-02-06 10:51:00,41.0,33.0,30.01,WNW,300,32.0,-999.0,73,-99.99,,,-99.99,,2013-02-06 10:51:00,
2013-02-06 11:00:00,42.0,33.0,30.01,WNW,290,31.0,-999.0,70,-99.99,,,-99.99,,2013-02-06 11:00:00,
2013-02-06 11:21:00,42.0,33.0,30.01,WNW,290,31.0,-999.0,70,-99.99,,,-99.99,,2013-02-06 11:21:00,
2013-02-06 11:31:00,42.0,33.0,30.01,WNW,290,31.0,-999.0,70,-99.99,,,-99.99,,2013-02-06 11:31:00,
2013-02-06 11:41:00,42.0,33.0,30.01,WNW,290,31.0,-999.0,70,-99.99,,,-99.99,,2013-02-06 11:41:00,
2013-02-06 11:52:00,42.0,33.0,30.01,WNW,290,31.0,-999.0,70,-99.99,,,-99.99,,2013-02-06 11:52:00,
2013-02-06 12:00:00,41.0,34.0,30.01,West,280,22.0,-999.0,73,-99.99,,,-99.99,,2013-02-06 12:00:00,
2013-02-06 12:21:00,41.0,34.0,30.01,West,280,22.0,-999.0,73,-99.99,,,-99.99,,2013-02-06 12:21:00,
2013-02-06 12:32:00,41.0,34.0,30.01,West,280,22.0,-999.0,73,-99.99,,,-99.99,,2013-02-06 12:32:00,
2013-02-06 12:41:00,41.0,34.0,30.01,West,280,22.0,-999.0,73,-99.99,,,-99.99,,2013-02-06 12:41:00,
2013-02-06 12:52:00,41.0,34.0,30.01,West,280,22.0,-999.0,73,-99.99,,,-99.99,,2013-02-06 12:52:00,
2013-02-06 13:00:00,41.0,33.0,30.02,WNW,300,31.0,-999.0,75,-99.99,,,-99.99,,2013-02-06 13:00:00,
2013-02-06 13:21:00,41.0,33.0,30.02,WNW,300,31.0,-999.0,75,-99.99,,,-99.99,,2013-02-06 13:21:00,
2013-02-06 13:31:00,41.0,33.0,30.02,WNW,300,31.0,-999.0,75,-99.99,,,-99.99,,2013-02-06 13:31:00,
2013-02-06 13:41:00,41.0,33.0,30.02,WNW,300,31.0,-999.0,75,-99.99,,,-99.99,,2013-02-06 13:41:00,
2013-02-06 13:51:00,41.0,33.0,30.02,WNW,300,31.0,-999.0,75,-99.99,,,-99.99,,2013-02-06 13:51:00,
2013-02-06 14:00:00,40.0,33.0,30.02,WNW,290,31.0,-999.0,77,-99.99,,,-99.99,,2013-02-06 14:00:00,
2013-02-06 14:21:00,40.0,33.0,30.02,WNW,290,31.0,-999.0,77,-99.99,,,-99.99,,2013-02-06 14:21:00,
2013-02-06 14:31:00,40.0,33.0,30.02,WNW,290,31.0,-999.0,77,-99.99,,,-99.99,,2013-02-06 14:31:00,
2013-02-06 14:41:00,40.0,33.0,30.02,WNW,290,31.0,-999.0,77,-99.99,,,-99.99,,2013-02-06 14:41:00,
2013-02-06 14:51:00,40.0,33.0,30.02,WNW,290,31.0,-999.0,77,-99.99,,,-99.99,,2013-02-06 14:51:00,
2013-02-06 16:00:00,41.0,34.0,30.04,WNW,290,25.0,-999.0,75,-99.99,,,-99.99,,2013-02-06 16:00:00,
2013-02-06 16:21:00,41.0,34.0,30.04,WNW,290,25.0,-999.0,75,-99.99,,,-99.99,,2013-02-06 16:21:00,
2013-02-06 16:31:00,41.0,34.0,30.04,WNW,290,25.0,-999.0,75,-99.99,,,-99.99,,2013-02-06 16:31:00,
2013-02-06 16:41:00,41.0,34.0,30.04,WNW,290,25.0,-999.0,75,-99.99,,,-99.99,,2013-02-06 16:41:00,
2013-02-06 16:51:00,41.0,34.0,30.04,WNW,290,25.0,-999.0,75,-99.99,,,-99.99,,2013-02-06 16:51:00,
2013-02-06 17:00:00,41.0,34.0,30.05,WNW,290,23.0,-999.0,77,-99.99,,,-99.99,,2013-02-06 17:00:00,
2013-02-06 17:21:00,41.0,34.0,30.05,WNW,290,23.0,-999.0,77,-99.99,,,-99.99,,2013-02-06 17:21:00,
2013-02-06 17:32:00,41.0,34.0,30.05,WNW,290,23.0,-999.0,77,-99.99,,,-99.99,,2013-02-06 17:32:00,
2013-02-06 17:41:00,41.0,34.0,30.05,WNW,290,23.0,-999.0,77,-99.99,,,-99.99,,2013-02-06 17:41:00,
2013-02-06 17:52:00,41.0,34.0,30.05,WNW,290,23.0,-999.0,77,-99.99,,,-99.99,,2013-02-06 17:52:00,
2013-02-06 18:00:00,40.0,36.0,30.07,WNW,290,26.0,-999.0,84,-99.99,,,-99.99,,2013-02-06 18:00:00,
2013-02-06 18:22:00,40.0,36.0,30.07,WNW,290,26.0,-999.0,84,-99.99,,,-99.99,,2013-02-06 18:22:00,
2013-02-06 18:32:00,40.0,36.0,30.07,WNW,290,26.0,-999.0,84,-99.99,,,-99.99,,2013-02-06 18:32:00,
2013-02-06 18:41:00,40.0,36.0,30.07,WNW,290,26.0,-999.0,84,-99.99,,,-99.99,,2013-02-06 18:41:00,
2013-02-06 18:52:00,40.0,36.0,30.07,WNW,290,26.0,-999.0,84,-99.99,,,-99.99,,2013-02-06 18:52:00,
2013-02-06 19:00:00,41.0,35.0,30.08,WNW,290,23.0,-999.0,79,-99.99,,,-99.99,,2013-02-06 19:00:00,
2013-02-06 19:21:00,41.0,35.0,30.08,WNW,290,23.0,-999.0,79,-99.99,,,-99.99,,2013-02-06 19:21:00,
2013-02-06 19:31:00,41.0,35.0,30.08,WNW,290,23.0,-999.0,79,-99.99,,,-99.99,,2013-02-06 19:31:00,
2013-02-06 19:41:00,41.0,35.0,30.08,WNW,290,23.0,-999.0,79,-99.99,,,-99.99,,2013-02-06 19:41:00,
2013-02-06 19:52:00,41.0,35.0,30.08,WNW,290,23.0,-999.0,79,-99.99,,,-99.99,,2013-02-06 19:52:00,
2013-02-06 20:00:00,42.0,34.0,30.10,WNW,290,23.0,-999.0,73,-99.99,,,-99.99,,2013-02-06 20:00:00,
2013-02-06 20:21:00,42.0,34.0,30.10,WNW,290,23.0,-999.0,73,-99.99,,,-99.99,,2013-02-06 20:21:00,
2013-02-06 20:31:00,42.0,34.0,30.10,WNW,290,23.0,-999.0,73,-99.99,,,-99.99,,2013-02-06 20:31:00,
2013-02-06 20:41:00,42.0,34.0,30.10,WNW,290,23.0,-999.0,73,-99.99,,,-99.99,,2013-02-06 20:41:00,
2013-02-06 20:52:00,42.0,34.0,30.10,WNW,290,23.0,-999.0,73,-99.99,,,-99.99,,2013-02-06 20:52:00,
2013-02-06 21:00:00,42.0,33.0,30.11,WNW,300,24.0,-999.0,71,-99.99,,,-99.99,,2013-02-06 21:00:00,
2013-02-06 21:21:00,42.0,33.0,30.11,WNW,300,24.0,-999.0,71,-99.99,,,-99.99,,2013-02-06 21:21:00,
2013-02-06 21:31:00,42.0,33.0,30.11,WNW,300,24.0,-999.0,71,-99.99,,,-99.99,,2013-02-06 21:31:00,
2013-02-06 21:41:00,42.0,33.0,30.11,WNW,300,24.0,-999.0,71,-99.99,,,-99.99,,2013-02-06 21:41:00,
2013-02-06 21:51:00,42.0,33.0,30.11,WNW,300,24.0,-999.0,71,-99.99,,,-99.99,,2013-02-06 21:51:00,
2013-02-06 22:00:00,41.0,34.0,30.12,WNW,290,24.0,-999.0,74,-99.99,,,-99.99,,2013-02-06 22:00:00,
2013-02-06 22:21:00,41.0,34.0,30.12,WNW,290,24.0,-999.0,74,-99.99,,,-99.99,,2013-02-06 22:21:00,
2013-02-06 22:31:00,41.0,34.0,30.12,WNW,290,24.0,-999.0,74,-99.99,,,-99.99,,2013-02-06 22:31:00,
2013-02-06 22:41:00,41.0,34.0,30.12,WNW,290,24.0,-999.0,74,-99.99,,,-99.99,,2013-02-06 22:41:00,
2013-02-06 22:51:00,41.0,34.0,30.12,WNW,290,24.0,-999.0,74,-99.99,,,-99.99,,2013-02-06 22:51:00,
2013-02-06 23:00:00,41.0,34.0,30.12,WNW,290,23.0,-999.0,76,-99.99,,,-99.99,,2013-02-06 23:00:00,
2013-02-06 23:21:00,41.0,34.0,30.12,WNW,290,23.0,-999.0,76,-99.99,,,-99.99,,2013-02-06 23:21:00,
2013-02-06 23:31:00,41.0,34.0,30.12,WNW,290,23.0,-999.0,76,-99.99,,,-99.99,,2013-02-06 23:31:00,
2013-02-06 23:41:00,41.0,34.0,30.12,WNW,290,23.0,-999.0,76,-99.99,,,-99.99,,2013-02-06 23:41:00,
2013-02-06 23:51:00,41.0,34.0,30.12,WNW,290,23.0,-999.0,76,-99.99,,,-99.99,,2013-02-06 23:51:00,